[[{"header":{"parameterUnit":"m.s-1","parameterCategory":1,"la1":30.2991,"la2":30.254,"lo1":-89.0895,"lo2":-89.0444,"dy":0.0017,"dx":0.0017,"nx":28,"ny":28,"refTime":"2024-12-15T03:00:00:Z","depth":0,"parameterNumber":2,"parameterNumberName":"U-component_of_WINDS"},"data":[0,0,0,0,0,0,0,0,0,0,0,0,0,0,0,0,0,0,0,0,0,0,0,0,0,0,0,0,0,0,0,0,0,0,0,0,0,0,0,0,0,0,0,0,0,0,0,0,0,0,0,0,0,0,0,0,0,0,-4.1335,-4.1336,0,-4.1415,-4.1416,-4.1417,-4.1408,-4.1407,-4.1405,-4.1404,-4.1491,-4.1495,-4.1498,0,0,0,0,0,0,0,0,0,0,0,0,0,-4.1179,-4.1182,-4.1335,-4.1336,-4.1337,-4.1415,-4.1416,-4.1417,-4.1408,-4.1407,-4.1405,-4.1403,-4.149,-4.1494,-4.1498,0,0,0,0,0,0,0,0,0,0,0,0,0,-4.1252,-4.1183,-4.1334,-4.1341,-4.1343,-4.1415,-4.1416,-4.1418,-4.1408,-4.1406,-4.1405,-4.1403,-4.1489,-4.1494,-4.1499,-4.1571,0,0,-4.1515,-4.1518,0,0,0,0,0,0,0,0,-4.1248,-4.1258,-4.1339,-4.1341,-4.1343,-4.1399,-4.1393,-4.1469,-4.1409,-4.1384,-4.1404,-4.1402,-4.1463,-4.147,-4.1489,-4.1575,-4.1579,-4.1516,-4.1519,-4.1521,-4.1523,0,0,0,0,0,0,0,-4.1243,-4.1254,-4.1367,-4.1341,-4.1343,-4.1343,-4.1351,-4.1408,-4.1433,-4.1386,-4.1385,-4.1395,-4.1463,-4.1484,-4.1491,-4.158,-4.1516,-4.152,-4.1524,-4.1526,-4.1732,-4.1734,0,0,0,0,0,0,-4.1235,-4.125,-4.1364,-4.1369,-4.1289,-4.1347,-4.1356,-4.1383,-4.1433,-4.1438,-4.1396,-4.1394,-4.1476,-4.1485,-4.1494,-4.1583,-4.1521,-4.1526,-4.1529,-4.173,-4.1732,-4.1735,0,0,0,0,0,0,-4.1232,-4.1245,-4.1361,-4.1309,-4.1324,-4.1352,-4.1382,-4.1386,-4.1407,-4.144,-4.1446,-4.1413,-4.1475,-4.1487,-4.1552,-4.1586,-4.1529,-4.1533,-4.1727,-4.173,-4.1734,-4.1761,0,0,0,0,0,0,-4.1227,-4.1244,-4.127,-4.131,-4.1327,-4.1415,-4.1384,-4.1389,-4.1416,-4.1413,-4.1457,-4.1463,-4.1474,-4.1544,-4.1558,-4.1592,-4.1537,-4.1724,-4.1728,-4.1733,-4.1757,-4.1765,-4.1771,0,0,0,0,0,-4.1222,-4.1275,-4.1271,-4.1285,-4.1359,-4.1417,-4.1427,-4.1438,-4.1418,-4.1446,-4.1468,-4.1461,-4.1581,-4.1551,-4.1566,-4.1603,-4.1722,-4.1727,-4.1732,-4.1754,-4.1763,-4.1771,0,0,0,0,0,0,-4.1239,-4.128,-4.1277,-4.1344,-4.1377,-4.1415,-4.145,-4.1447,-4.1488,-4.1484,-4.1498,-4.1508,-4.1574,-4.1595,-4.1562,-4.1677,-4.1649,-4.1657,-4.166,-4.1669,-4.1676,-4.167,-4.1542,0,0,0,0,0,-4.125,-4.1292,-4.1326,-4.1383,-4.1399,-4.1422,-4.1448,-4.1453,-4.1489,-4.1503,-4.153,-4.1566,-4.1612,-4.1642,-4.1686,-4.176,-4.1771,-4.1793,-4.1801,-4.1806,-4.1813,-4.1857,-4.1868,-4.1752,-4.1752,-4.1752,0,0,-4.1274,-4.1302,-4.1328,-4.1387,-4.1413,-4.1458,-4.1434,-4.1482,-4.1516,-4.1511,-4.1574,-4.1596,-4.1637,-4.1708,-4.174,-4.1727,-4.1848,-4.1813,-4.1817,-4.1821,-4.1863,-4.1874,-4.1884,-4.1755,-4.1755,-4.1754,0,0,-4.1341,-4.1366,-4.1416,-4.1443,-4.1483,-4.1499,-4.1511,-4.1551,-4.1564,-4.1628,-4.1626,-4.1668,-4.1746,-4.1776,-4.1802,-4.1884,-4.1881,-4.1899,-4.1936,-4.1978,-4.1987,-4.1995,-4.2026,-4.2037,-4.1906,-4.1906,-4.1906,0,-4.1366,-4.1432,-4.1442,-4.1491,-4.1519,-4.1516,-4.1568,-4.1595,-4.1648,-4.1668,-4.1653,-4.1752,-4.178,-4.1859,-4.1879,-4.19,-4.1916,-4.1893,-4.1985,-4.1993,-4.2001,-4.203,-4.2042,-4.1908,-4.1907,-4.1907,-4.1907,0,-4.1462,-4.1508,-4.1544,-4.1595,-4.1627,-4.1677,-4.1697,-4.1728,-4.1733,-4.175,-4.1817,-4.1851,-4.1902,-4.1922,-4.1926,-4.2002,-4.1993,-4.1981,-4.1954,-4.2014,-4.2042,-4.2053,-4.191,-4.191,-4.1909,-4.1909,0,0,-4.1539,-4.1597,-4.161,-4.1634,-4.168,-4.1717,-4.1769,-4.1819,-4.1846,-4.1884,-4.1929,-4.1997,-4.1987,-4.2016,-4.2025,-4.2062,-4.2127,-4.2046,-4.2047,-4.206,-4.2215,-4.2224,-4.2236,-4.2125,-4.2127,-4.2129,-4.2212,0,-4.1611,-4.1701,-4.1713,-4.1794,-4.1838,-4.1838,-4.1884,-4.1918,-4.1937,-4.1979,-4.2001,-4.2049,-4.2032,-4.205,-4.2086,-4.2111,-4.2158,-4.2105,-4.2169,-4.2172,-4.2159,-4.2251,-4.226,-4.2336,-4.2223,-4.2225,-4.2226,0,-4.1706,-4.1746,-4.1831,-4.1873,-4.1892,-4.1933,-4.1981,-4.202,-4.2061,-4.2072,-4.2106,-4.2111,-4.2168,-4.2139,-4.2219,-4.2182,-4.221,-4.2227,-4.223,-4.2236,-4.2202,-4.226,-4.236,-4.2372,-4.2243,-4.2242,-4.2241,0,-4.1755,-4.1831,-4.1892,-4.1912,-4.1963,-4.1992,-4.2014,-4.2053,-4.2083,-4.2126,-4.2146,-4.2195,-4.2223,-4.2262,-4.2281,-4.2258,-4.2361,-4.2332,-4.2374,-4.2373,-4.2394,-4.2393,-4.2501,-4.2412,-4.2412,-4.2412,-4.2411,0,-4.1834,-4.1886,-4.1915,-4.1952,-4.2012,-4.2027,-4.2086,-4.2108,-4.2143,-4.2187,-4.2191,-4.2232,-4.2255,-4.2301,-4.2316,-4.2381,-4.2394,-4.2406,-4.241,-4.2406,-4.2404,-4.2423,-4.2419,-4.2415,-4.2414,-4.2414,-4.2413,0,-4.1898,-4.1919,-4.1986,-4.2029,-4.2041,-4.2083,-4.2121,-4.2159,-4.2178,-4.2234,-4.2248,-4.228,-4.2334,-4.2357,-4.2424,-4.2435,-4.2509,-4.2509,-4.2495,-4.2496,-4.2537,-4.2533,-4.2661,-4.2679,-4.2578,-4.2579,-4.258,0,-4.1947,-4.1987,-4.2035,-4.2064,-4.2087,-4.2134,-4.2164,-4.2183,-4.2215,-4.2266,-4.2298,-4.2353,-4.2396,-4.2484,-4.2514,-4.2566,-4.2567,-4.2609,-4.2575,-4.2571,-4.2569,-4.2566,-4.2572,-4.2615,-4.2616,-4.2617,-4.2617,0,-4.2031,-4.204,-4.2084,-4.2132,-4.2169,-4.2208,-4.2246,-4.227,-4.2295,-4.2332,-4.2386,-4.2421,-4.249,-4.2544,-4.2599,-4.2625,-4.2626,-4.2628,-4.264,-4.2636,-4.2627,-4.2634,-4.2512,-4.2625,-4.2624,-4.2623,-4.2623,-4.2623,-4.209,-4.2126,-4.2166,-4.2215,-4.2246,-4.2282,-4.2321,-4.2346,-4.2391,-4.2448,-4.2457,-4.2516,-4.2559,-4.2632,-4.2661,-4.2709,-4.2699,-4.2717,-4.2721,-4.2725,-4.2728,-4.262,-4.2719,-4.2719,-4.2719,-4.2719,-4.2719,0,-4.2175,-4.2201,-4.2246,-4.23,-4.234,-4.2337,-4.238,-4.2414,-4.2465,-4.2505,-4.2548,-4.2613,-4.2667,-4.2703,-4.2758,-4.279,-4.2792,-4.2804,-4.2802,-4.2808,-4.2734,-4.2718,-4.2801,-4.2801,-4.2801,-4.2801,-4.2801,-4.2801,-4.2224,-4.2286,-4.2301,-4.238,-4.2406,-4.2463,-4.2488,-4.2523,-4.2555,-4.2626,-4.2671,-4.2693,-4.2732,-4.2791,-4.2841,-4.285,-4.2871,-4.2883,-4.2892,-4.2822,-4.2813,-4.2805,-4.279,-4.2887,-4.2887,-4.2963,-4.2963,-4.2964]},{"header":{"parameterUnit":"m.s-1","parameterCategory":1,"la1":30.2991,"la2":30.254,"lo1":-89.0895,"lo2":-89.0444,"dy":0.0017,"dx":0.0017,"nx":28,"ny":28,"refTime":"2024-12-15T03:00:00:Z","depth":0,"parameterNumber":3,"parameterNumberName":"V-component_of_WINDS"},"data":[0,0,0,0,0,0,0,0,0,0,0,0,0,0,0,0,0,0,0,0,0,0,0,0,0,0,0,0,0,0,0,0,0,0,0,0,0,0,0,0,0,0,0,0,0,0,0,0,0,0,0,0,0,0,0,0,0,0,0.5567,0.5568,0,0.56,0.56,0.56,0.57,0.5702,0.5705,0.5707,0.5733,0.5732,0.5731,0,0,0,0,0,0,0,0,0,0,0,0,0,0.5588,0.5587,0.5567,0.5568,0.5568,0.5599,0.56,0.56,0.57,0.5703,0.5705,0.5708,0.5734,0.5732,0.5731,0,0,0,0,0,0,0,0,0,0,0,0,0,0.5595,0.5587,0.5567,0.5622,0.5627,0.5599,0.56,0.56,0.5699,0.5703,0.5706,0.5709,0.5734,0.5732,0.573,0.5651,0,0,0.5724,0.5723,0,0,0,0,0,0,0,0,0.5595,0.5594,0.5613,0.5618,0.5624,0.565,0.5617,0.5617,0.5698,0.5672,0.5707,0.5711,0.5702,0.5703,0.5702,0.5652,0.5653,0.5724,0.5723,0.5722,0.5721,0,0,0,0,0,0,0,0.5594,0.5594,0.558,0.5613,0.562,0.5643,0.5648,0.5618,0.5667,0.5674,0.5682,0.5684,0.5706,0.5703,0.5703,0.5654,0.5724,0.5722,0.5721,0.572,0.5542,0.5539,0,0,0,0,0,0,0.5587,0.5592,0.5579,0.5581,0.5617,0.564,0.5645,0.5638,0.5668,0.5676,0.5681,0.5689,0.5705,0.5705,0.5704,0.5615,0.5722,0.572,0.5719,0.5546,0.5541,0.5538,0,0,0,0,0,0,0.5587,0.5584,0.5578,0.5589,0.559,0.5636,0.5627,0.5637,0.5634,0.5674,0.5683,0.567,0.5708,0.5707,0.5664,0.5617,0.5719,0.5717,0.555,0.5544,0.554,0.5433,0,0,0,0,0,0,0.5587,0.5584,0.5555,0.5587,0.5589,0.5538,0.5624,0.5635,0.5631,0.5641,0.5666,0.5673,0.571,0.5667,0.5662,0.5616,0.5715,0.5554,0.5547,0.5541,0.5441,0.5425,0.5411,0,0,0,0,0,0.5587,0.5522,0.5553,0.5551,0.5554,0.5535,0.5536,0.5582,0.5627,0.5598,0.5624,0.5672,0.5623,0.5662,0.5657,0.5609,0.5557,0.5549,0.5542,0.5448,0.5428,0.5412,0,0,0,0,0,0,0.548,0.5527,0.5562,0.5506,0.5516,0.5552,0.5517,0.556,0.5556,0.5565,0.5621,0.5626,0.5575,0.5588,0.563,0.5535,0.5598,0.5589,0.5528,0.551,0.5495,0.5493,0.5714,0,0,0,0,0,0.545,0.5432,0.5474,0.542,0.5424,0.5469,0.5462,0.5498,0.551,0.5514,0.5537,0.5545,0.5532,0.5522,0.5511,0.5444,0.5451,0.5409,0.5394,0.5381,0.5373,0.5339,0.5321,0.5512,0.5512,0.5512,0,0,0.5387,0.5411,0.5396,0.5399,0.5411,0.5391,0.5472,0.5446,0.5431,0.551,0.5472,0.5488,0.5501,0.5446,0.5423,0.5455,0.5322,0.5371,0.5361,0.5359,0.5329,0.5311,0.5295,0.5507,0.5507,0.5508,0,0,0.5263,0.5279,0.5237,0.5248,0.5267,0.5298,0.5287,0.5318,0.5333,0.5296,0.5355,0.5337,0.5312,0.532,0.5321,0.5202,0.5246,0.5196,0.5118,0.5084,0.5069,0.5056,0.5015,0.4999,0.5188,0.5187,0.5187,0,0.5182,0.5155,0.5209,0.5181,0.5181,0.5253,0.5211,0.5218,0.5231,0.5229,0.5266,0.5239,0.5252,0.5201,0.5172,0.517,0.516,0.5194,0.5068,0.5055,0.5044,0.5004,0.4988,0.5181,0.5182,0.5183,0.5183,0,0.5055,0.5036,0.4999,0.5014,0.5009,0.4973,0.5021,0.501,0.5046,0.5073,0.5035,0.5054,0.505,0.5041,0.5074,0.4994,0.5014,0.5058,0.5123,0.5019,0.4983,0.4968,0.5173,0.5175,0.5177,0.5178,0,0,0.4863,0.4909,0.4895,0.4903,0.493,0.4915,0.4883,0.4881,0.4871,0.4878,0.4852,0.4831,0.4873,0.4874,0.4909,0.488,0.4786,0.4928,0.493,0.4902,0.4699,0.4666,0.4647,0.4816,0.4813,0.4811,0.4698,0,0.4746,0.4696,0.4744,0.4683,0.4667,0.4736,0.4708,0.4721,0.4745,0.4734,0.476,0.4745,0.4801,0.4802,0.4776,0.4802,0.4746,0.4811,0.4791,0.479,0.4786,0.4629,0.4593,0.4485,0.4684,0.4682,0.468,0,0.4602,0.4606,0.4544,0.4577,0.4572,0.4546,0.455,0.4538,0.4553,0.4573,0.4575,0.4619,0.4589,0.4653,0.4612,0.4656,0.465,0.4662,0.4659,0.4659,0.4729,0.4624,0.4452,0.4436,0.4659,0.466,0.4662,0,0.4469,0.4458,0.4421,0.4425,0.4462,0.4442,0.4456,0.4476,0.4473,0.4475,0.4474,0.4471,0.447,0.4467,0.4509,0.4551,0.4463,0.4529,0.4478,0.4476,0.4455,0.4456,0.4281,0.4451,0.4452,0.4452,0.4452,0,0.4334,0.4293,0.4362,0.4338,0.4295,0.4351,0.4307,0.4328,0.4345,0.4326,0.4386,0.4366,0.4424,0.441,0.4443,0.4404,0.4403,0.4418,0.4427,0.4412,0.441,0.4409,0.4418,0.4448,0.4449,0.445,0.445,0,0.4177,0.4221,0.4185,0.4224,0.4233,0.42,0.4233,0.4212,0.4242,0.4217,0.4215,0.426,0.4247,0.429,0.4283,0.4305,0.4249,0.427,0.4244,0.4251,0.4197,0.4202,0.4015,0.3993,0.4177,0.4175,0.4174,0,0.4088,0.4059,0.4096,0.4089,0.4101,0.4088,0.4086,0.414,0.4135,0.4152,0.413,0.4123,0.412,0.4097,0.4128,0.4124,0.4145,0.408,0.4145,0.4132,0.4145,0.4146,0.4144,0.4066,0.4064,0.4062,0.4061,0,0.3925,0.3949,0.3945,0.3948,0.3945,0.3949,0.3958,0.3948,0.4006,0.3997,0.3987,0.3985,0.398,0.3973,0.3975,0.3989,0.4033,0.404,0.4028,0.4013,0.4,0.4007,0.4208,0.4044,0.4046,0.4047,0.4048,0.4049,0.38,0.3779,0.3802,0.3795,0.3808,0.3815,0.3799,0.3827,0.382,0.3822,0.3854,0.3837,0.3855,0.3864,0.3873,0.386,0.389,0.3872,0.3867,0.3862,0.3853,0.4002,0.386,0.3861,0.3861,0.3862,0.3862,0,0.3641,0.3661,0.3654,0.3666,0.366,0.3706,0.3719,0.3711,0.3696,0.371,0.3707,0.3695,0.3689,0.372,0.3717,0.3701,0.3722,0.3698,0.37,0.3702,0.3826,0.3837,0.3682,0.3682,0.3682,0.3682,0.3682,0.3682,0.3558,0.3525,0.3551,0.3524,0.3544,0.353,0.3533,0.354,0.3551,0.3536,0.3532,0.3554,0.3574,0.3574,0.357,0.3579,0.3575,0.3545,0.3561,0.3676,0.3694,0.371,0.3721,0.3544,0.3543,0.3439,0.3438,0.3437]}]]